Location: Unspecified
(41.4057°N, 2.1753°E)
Time: 13:33:28
(UTC+01:00)

ISS - Visible Passes

Search period start: 06 March 2015 00:00
Search period end: 16 March 2015 00:00
Orbit: 396 x 408 km, 51.6° (Epoch: 06 March)

Date Brightness Start Highest point End Pass type
(mag) Time Alt. Az. Time Alt. Az. Time Alt. Az.
10 Mar -0.8 06:00:26 10° S 06:02:48 19° SE 06:05:13 10° E visible
12 Mar -2.4 05:51:03 20° SSW 05:52:58 45° SE 05:56:05 10° ENE visible
13 Mar -1.2 05:00:26 22° ESE 05:00:26 22° ESE 05:02:39 10° E visible
13 Mar -2.7 06:33:11 10° WSW 06:36:17 42° NNW 06:39:23 10° NE visible
14 Mar -3.4 05:42:18 46° WSW 05:43:08 76° NW 05:46:22 10° NE visible
15 Mar -1.3 04:51:24 29° ENE 04:51:24 29° ENE 04:53:12 10° ENE visible
15 Mar -1.8 06:24:00 11° WNW 06:26:37 24° NNW 06:29:21 10° NE visible
